Location: Johnson City
(36.3130°N, 82.3540°W)
Time: 02:13:04
(UTC-04:00)

Hubble Space Telescope - Visible Passes

Search period start: 21 October 2018 00:00
Search period end: 31 October 2018 00:00
Orbit: 537 x 541 km, 28.5° (Epoch: 20 October)

Date Brightness Start Highest point End Pass type
(mag) Time Alt. Az. Time Alt. Az. Time Alt. Az.
21 Oct 2.3 06:26:10 19° SW 06:27:53 25° S 06:31:16 10° SE visible
22 Oct 2.3 06:16:26 21° SSW 06:17:23 23° S 06:20:40 10° SE visible
23 Oct 2.4 06:06:43 21° SSW 06:06:54 21° SSW 06:10:02 10° SE visible
24 Oct 2.7 05:57:01 18° S 05:57:01 18° S 05:59:18 10° SSE visible
25 Oct 3.1 05:47:22 14° S 05:47:22 14° S 05:48:29 10° SSE visible
